Weather History for Northway, AK

Change the Weather History Date:

Thursday, August 28, 2014

  Actual Average Record
Temperature  
Mean Temperature 51 °F -  
Max Temperature 63 °F 59 °F 75 °F (1951)
Min Temperature 39 °F 37 °F 26 °F (1998)
Degree Days  
Heating Degree Days 14    
Growing Degree Days 1 (Base 50)    
Moisture  
Dew Point 39 °F    
Average Humidity 66    
Maximum Humidity 93    
Minimum Humidity 34    
Precipitation  
Precipitation 0.00 in - - ()
Sea Level Pressure  
Sea Level Pressure 29.70 in    
Wind  
Wind Speed 3 mph (SE)    
Max Wind Speed 7 mph    
Max Gust Speed -    
Visibility 10 miles    
Events      
Averages and records for this station are not official NWS values.
T = Trace of Precipitation, MM = Missing Value Source: NWS Daily Summary

Daily Weather History Graph

Daily Weather History Graph

Search for Another Location

Airport:

Trip Planner

Search our weather history database for the weather conditions in past years. The results will help you decide how hot, cold, wet, or windy it might be!

Date:

Astronomy

Aug. 28, 2014 Rise Set
Actual Time 6:03 AM AKDT 8:52 PM AKDT
Civil Twilight 5:11 AM AKDT 9:43 PM AKDT
Nautical Twilight 3:57 AM AKDT 10:56 PM AKDT
Astronomical Twilight 2:01 AM AKDT 12:56 AM AKDT
Moon 10:15 AM AKDT (8/28) 9:03 PM AKDT (8/28)
Length of Visible Light 16h 32m
Length of Day
14h 48m
Waxing Crescent, 9% of the Moon is Illuminated
Aug 28
Waxing Crescent
Sep 2
First Quarter
Sep 8
Full
Sep 15
Last Quarter
Sep 23
New

Hourly Weather History & Observations

Time (AKDT) Temp. Windchill Dew Point Humidity Pressure Visibility Wind Dir Wind Speed Gust Speed Precip Events Conditions
12:53 AM 45.0 °F 43.5 °F 42.1 °F 90% 29.78 in 10.0 mi South 3.5 mph - N/A   Mostly Cloudy
1:53 AM 42.1 °F - 39.0 °F 89% 29.79 in 10.0 mi Calm Calm - N/A   Mostly Cloudy
2:53 AM 41.0 °F - 37.9 °F 89% 29.79 in 9.0 mi Calm Calm - N/A   Mostly Cloudy
3:53 AM 43.0 °F 41.3 °F 39.0 °F 86% 29.77 in 10.0 mi ESE 3.5 mph - N/A   Scattered Clouds
4:53 AM 41.0 °F 39.0 °F 39.0 °F 93% 29.78 in 10.0 mi ENE 3.5 mph - N/A   Scattered Clouds
5:53 AM 39.9 °F 37.8 °F 37.9 °F 93% 29.78 in 10.0 mi East 3.5 mph - N/A   Scattered Clouds
6:53 AM 42.8 °F 41.1 °F 37.4 °F 81% 29.75 in 10.0 mi ESE 3.5 mph - N/A   Clear
7:53 AM 44.1 °F 42.5 °F 39.0 °F 82% 29.78 in 10.0 mi SE 3.5 mph - N/A   Clear
8:53 AM 46.0 °F 43.9 °F 39.9 °F 79% 29.77 in 10.0 mi SE 4.6 mph - N/A   Clear
9:53 AM 52.0 °F - 39.9 °F 63% 29.76 in 10.0 mi ESE 4.6 mph - N/A   Overcast
10:53 AM 55.9 °F - 37.9 °F 51% 29.75 in 10.0 mi SE 6.9 mph - N/A   Overcast
11:53 AM 57.0 °F - 36.0 °F 45% 29.73 in 10.0 mi ESE 5.8 mph - N/A   Overcast
12:53 PM 59.0 °F - 36.0 °F 42% 29.71 in 10.0 mi Variable 6.9 mph - N/A   Overcast
1:53 PM 61.0 °F - 36.0 °F 39% 29.70 in 10.0 mi SSE 5.8 mph - N/A   Overcast
2:53 PM 61.0 °F - 35.1 °F 38% 29.68 in 10.0 mi North - - N/A   Overcast
3:53 PM 62.1 °F - 33.1 °F 34% 29.66 in 10.0 mi SE 4.6 mph - N/A   Overcast
4:53 PM 63.0 °F - 34.0 °F 34% 29.64 in 10.0 mi South 4.6 mph - N/A   Overcast
5:53 PM 62.1 °F - 35.1 °F 37% 29.63 in 10.0 mi Calm Calm - N/A   Overcast
6:53 PM 61.0 °F - 37.9 °F 42% 29.62 in 10.0 mi Calm Calm - N/A   Overcast
7:53 PM 55.9 °F - 43.0 °F 62% 29.60 in 10.0 mi Calm Calm - N/A   Clear
8:53 PM 53.1 °F - 42.1 °F 66% 29.59 in 10.0 mi ENE 3.5 mph - N/A   Clear
9:53 PM 50.0 °F - 43.0 °F 77% 29.58 in 10.0 mi Calm Calm - N/A   Mostly Cloudy
10:53 PM 46.9 °F - 44.1 °F 90% 29.57 in 10.0 mi Calm Calm - N/A   Mostly Cloudy
11:53 PM 46.9 °F - 41.0 °F 80% 29.57 in 10.0 mi Calm Calm - N/A   Mostly Cloudy